Location: Baia Mare
(47.6567°N, 23.5850°E)
Time: 18:59:14
(UTC+03:00)

ISS - Pass Details

Date: 11 May 2018
Orbit: 402 x 407 km, 51.6° (Epoch: 23 May)

Event Time Altitude Azimuth Distance (km) Brightness Sun altitude
Exits shadow 04:03:42 28° 261° (W) 788 -2.8 -15.2°
Maximum altitude 04:05:14 70° 339° (NNW) 432 -3.7 -15.0°
Drops below altitude 10° 04:08:30 10° 64° (ENE) 1,459 0.1 -14.7°
Sets 04:10:35 0° 67° (ENE) 2,321 1.2 -14.4°
